Zurück zum Katalog

HULIANWANG DIGUI-175

AktivWissenschaftLEO
NORAD 69578·PAYLOAD·🇨🇳 China

Gestartet Jun 17, 2026 von Wenchang Space Launch Site

Loading…

Nächste Überflüge (nächste 24 Stunden)

TLE

AktuellSource: Space-Track

Epoche: Sep 14, 2026, 10:15 UTC

1 69578U 26137G   26257.42737807 -.00000092  00000-0  68031-4 0  9998
2 69578  49.9964 275.6091 0000191 337.9118  22.1746 13.29327170 12214

Verfolge HULIANWANG DIGUI-175 in Echtzeit mit AllMySat

Download on the App Store